This is the latest recevied weather packets stored in our database for station/object KJ6APE. If no packets are shown the sender has not sent any weather packets the latest 10 day(s).
| Time | Temp. | Humidity | Pressure | Rain* | Wind** | Luminosity | Snow |
|---|---|---|---|---|---|---|---|
| 1777588135 | 27.22° C | 39% | 1012.8 hPa | 0 mm | - | 849 W/m² | - |
| 1777587831 | 27.22° C | 38% | 1012.9 hPa | 0 mm | - | 863 W/m² | - |
| 1777587531 | 27.22° C | 39% | 1012.9 hPa | 0 mm | - | 873 W/m² | - |
| 1777587227 | 27.22° C | 39% | 1012.8 hPa | 0 mm | - | 886 W/m² | - |
| 1777586922 | 27.78° C | 37% | 1012.9 hPa | 0 mm | - | 897 W/m² | - |
| 1777586619 | 27.22° C | 39% | 1013.1 hPa | 0 mm | - | 906 W/m² | - |
| 1777586315 | 27.22° C | 37% | 1013.1 hPa | 0 mm | - | 916 W/m² | - |
| 1777586013 | 27.22° C | 38% | 1013.3 hPa | 0 mm | - | 925 W/m² | - |
| 1777585713 | 27.22° C | 38% | 1013.3 hPa | 0 mm | - | 935 W/m² | - |
| 1777585412 | 27.22° C | 38% | 1013.3 hPa | 0 mm | - | 943 W/m² | - |
| 1777585108 | 26.67° C | 40% | 1013.2 hPa | 0 mm | - | 950 W/m² | - |
| 1777584804 | 26.67° C | 41% | 1013.7 hPa | 0 mm | - | 954 W/m² | - |
| 1777584502 | 26.67° C | 42% | 1013.4 hPa | 0 mm | - | 960 W/m² | - |
| 1777584199 | 26.67° C | 40% | 1013.2 hPa | 0 mm | - | 971 W/m² | - |
| 1777583898 | 26.67° C | 40% | 1013.4 hPa | 0 mm | - | 975 W/m² | - |
| 1777583594 | 26.11° C | 40% | 1013.4 hPa | 0 mm | - | 980 W/m² | - |
| 1777583292 | 26.67° C | 40% | 1013.3 hPa | 0 mm | - | 980 W/m² | - |
| 1777582988 | 26.67° C | 40% | 1013.5 hPa | 0 mm | - | 985 W/m² | - |
| 1777582686 | 26.67° C | 38% | 1013.2 hPa | 0 mm | - | 989 W/m² | - |
| 1777582381 | 26.11° C | 39% | 1013.4 hPa | 0 mm | - | 988 W/m² | - |
| 1777582078 | 26.11° C | 42% | 1013.6 hPa | 0 mm | - | 991 W/m² | - |
| 1777581773 | 26.11° C | 38% | 1013.5 hPa | 0 mm | - | 992 W/m² | - |
| 1777581472 | 26.67° C | 38% | 1013.5 hPa | 0 mm | - | 993 W/m² | - |
| 1777581167 | 26.67° C | 42% | 1013.6 hPa | 0 mm | - | 988 W/m² | - |
| 1777580862 | 26.11° C | 39% | 1013.7 hPa | 0 mm | - | 987 W/m² | - |
* Rain latest hour (hover to see other rain measurements)
** Current wind speed in m/s (hover to see current wind gust speed)